Location: Unspecified
(0.0000°N, 0.0000°E)
Time: 23:46:56
(UTC+00:00)

Vanguard 2 Rocket - All Passes

Search period start: 19 November 2019 00:00
Search period end: 29 November 2019 00:00
Orbit: 554 x 3326 km, 32.9° (Epoch: 17 November)

Date Brightness Start Highest point End Pass type
(mag) Time Alt. Az. Time Alt. Az. Time Alt. Az.
19 Nov - 05:00:43 10° NNE 05:03:58 12° NE 05:07:46 10° NE visible
19 Nov - 07:08:43 10° NW 07:19:26 51° NE 07:36:45 10° ESE daylight
19 Nov - 09:22:07 10° WNW 09:36:39 69° SW 09:57:04 10° SE daylight
19 Nov - 11:41:21 10° W 11:57:09 32° SSW 12:13:43 10° SSE daylight
19 Nov - 14:09:37 10° SW 14:20:25 17° S 14:29:42 10° SSE daylight
19 Nov - 16:35:11 10° SSW 16:42:56 16° S 16:48:59 10° SE daylight
19 Nov - 18:51:55 10° SW 19:01:06 32° SSE 19:06:48 10° E visible
19 Nov - 21:08:25 10° WSW 21:15:11 50° NW 21:19:33 10° NE visible
20 Nov - 06:10:08 10° NNW 06:18:45 34° NE 06:32:17 10° E daylight
20 Nov - 08:21:58 10° NW 08:34:40 87° SW 08:54:40 10° SE daylight
20 Nov - 10:38:36 10° W 10:53:59 41° SSW 11:12:26 10° SE daylight
20 Nov - 13:03:28 10° WSW 13:16:39 20° SSW 13:28:47 10° SSE daylight
20 Nov - 15:31:34 10° SSW 15:40:23 15° S 15:47:30 10° SE daylight
20 Nov - 17:50:22 10° SSW 18:00:16 26° SSE 18:06:44 10° ESE daylight
20 Nov - 20:06:55 10° SW 20:15:49 87° SE 20:20:57 10° ENE visible
21 Nov - 05:12:22 10° N 05:18:24 20° NE 05:26:49 10° E visible
21 Nov - 07:22:29 10° NW 07:33:18 72° NE 07:51:38 10° ESE daylight
21 Nov - 09:37:03 10° WNW 09:51:14 51° SSW 10:10:42 10° SE daylight
21 Nov - 11:58:28 10° WSW 12:12:51 25° SSW 12:27:35 10° SSE daylight
21 Nov - 14:26:46 10° SW 14:37:06 16° S 14:45:48 10° SSE daylight
21 Nov - 16:48:19 10° SSW 16:58:49 22° SSE 17:06:08 10° ESE daylight
21 Nov - 19:05:19 10° SW 19:15:55 56° SSE 19:21:54 10° ENE visible
21 Nov - 21:23:46 10° W 21:29:06 24° NW 21:32:56 10° NNE visible
22 Nov - 06:23:34 10° NNW 06:32:36 50° NE 06:48:00 10° ESE daylight
22 Nov - 08:36:27 10° WNW 08:48:59 65° SSW 09:08:30 10° SE daylight
22 Nov - 10:54:53 10° WSW 11:09:20 31° SSW 11:26:04 10° SSE daylight
22 Nov - 13:21:20 10° SW 13:33:15 18° S 13:44:00 10° SSE daylight
22 Nov - 15:45:38 10° SSW 15:56:38 20° S 16:04:52 10° SE daylight
22 Nov - 18:03:32 10° SW 18:15:26 40° SSE 18:22:23 10° E visible
22 Nov - 20:21:24 10° WSW 20:29:52 50° NW 20:34:57 10° NE visible
23 Nov - 05:25:15 10° NNW 05:32:24 31° NE 05:43:44 10° E daylight
23 Nov - 07:36:37 10° WNW 07:47:23 83° SW 08:05:53 10° SE daylight
23 Nov - 09:52:38 10° W 10:06:14 38° SSW 10:24:14 10° SE daylight
23 Nov - 12:16:10 10° SW 12:29:11 20° SSW 12:42:05 10° SSE daylight
23 Nov - 14:42:12 10° SSW 14:53:42 18° S 15:02:57 10° SE daylight
23 Nov - 17:01:29 10° SW 17:14:18 32° SSE 17:22:21 10° E daylight
23 Nov - 19:19:15 10° SW 19:30:18 86° NW 19:36:22 10° NE visible
23 Nov - 21:41:01 10° WNW 21:43:02 12° NW 21:44:50 10° NNW visible
24 Nov - 04:27:54 10° N 04:32:28 17° NE 04:38:31 10° ENE visible
24 Nov - 06:37:21 10° NW 06:46:28 73° NE 07:02:51 10° ESE daylight
24 Nov - 08:51:28 10° W 09:03:43 47° SSW 09:22:05 10° SE daylight
24 Nov - 11:11:57 10° WSW 11:25:15 24° SSW 11:40:02 10° SSE daylight
24 Nov - 13:38:06 10° SW 13:50:03 18° S 14:00:29 10° SE daylight
24 Nov - 15:59:07 10° SSW 16:12:29 27° SSE 16:21:39 10° ESE daylight
24 Nov - 18:17:05 10° SW 18:30:11 64° SSE 18:37:19 10° ENE visible
24 Nov - 20:36:48 10° W 20:43:43 27° NW 20:48:21 10° NNE visible
25 Nov - 05:38:38 10° NNW 05:46:12 48° NE 05:59:24 10° ESE daylight
25 Nov - 07:51:09 10° WNW 08:01:49 60° SSW 08:19:41 10° SE daylight
25 Nov - 10:08:58 10° WSW 10:21:46 28° SSW 10:37:51 10° SSE daylight
25 Nov - 12:33:39 10° SW 12:45:56 19° S 12:57:42 10° SE daylight
25 Nov - 14:56:25 10° SSW 15:09:57 23° SSE 15:20:09 10° ESE daylight
25 Nov - 17:14:50 10° SW 17:29:22 48° SSE 17:37:47 10° E daylight
25 Nov - 19:33:49 10° WSW 19:44:19 51° NW 19:50:18 10° NE visible
26 Nov - 04:40:32 10° NNW 04:46:24 28° NE 04:55:31 10° E visible
26 Nov - 06:51:32 10° WNW 07:00:36 79° SW 07:17:02 10° SE daylight
26 Nov - 09:07:08 10° W 09:18:53 34° SSW 09:35:34 10° SE daylight
26 Nov - 11:29:27 10° SW 11:41:43 20° S 11:54:47 10° SSE daylight
26 Nov - 13:53:22 10° SSW 14:06:40 21° S 14:17:45 10° SE daylight
26 Nov - 16:12:29 10° SW 16:27:54 38° SSE 16:37:38 10° E daylight
26 Nov - 18:31:06 10° WSW 18:44:29 82° NW 18:51:41 10° NE visible
26 Nov - 20:53:40 10° WNW 20:57:36 14° NW 21:00:46 10° N visible
27 Nov - 03:43:43 10° NNE 03:46:47 13° NE 03:50:33 10° ENE visible
27 Nov - 05:52:27 10° NW 06:00:05 74° NE 06:14:12 10° ESE daylight
27 Nov - 08:06:16 10° W 08:16:40 42° SSW 08:33:11 10° SE daylight
27 Nov - 10:26:01 10° WSW 10:37:50 22° SSW 10:51:54 10° SSE daylight
27 Nov - 12:50:02 10° SW 13:02:46 19° S 13:14:33 10° SE daylight
27 Nov - 15:10:03 10° SW 15:25:44 31° SSE 15:36:44 10° ESE daylight
27 Nov - 17:28:28 10° SW 17:44:02 72° SSE 17:52:34 10° ENE daylight
27 Nov - 19:49:15 10° W 19:58:07 30° NW 20:03:44 10° NNE visible
28 Nov - 04:53:53 10° NNW 05:00:12 46° NE 05:11:10 10° ESE visible
28 Nov - 07:06:11 10° WNW 07:15:08 54° SSW 07:30:46 10° SE daylight
28 Nov - 09:23:33 10° WSW 09:34:33 26° SSW 09:49:09 10° SSE daylight
28 Nov - 11:46:37 10° SW 11:58:32 19° S 12:10:46 10° SE daylight
28 Nov - 14:07:35 10° SSW 14:22:52 26° SSE 14:34:54 10° ESE daylight
28 Nov - 16:25:55 10° SW 16:42:52 54° SSE 16:52:54 10° ENE daylight
28 Nov - 18:45:43 10° WSW 18:58:25 52° NW 19:05:35 10° NE visible
